Regional Weather Roundup
Issued by NWS State College, PA

Home | Current Version | Previous Version | Text Only | Print | Product List | Glossary On
Versions: 1 2 3 4 5 6 7 8 9 10 11 12 13 14 15 16 17 18 19 20 21 22 23 24 25 26 27 28 29 30 31 32 33 34 35 36 37 38 39 40 41 42 43 44 45 46 47 48 49 50
000
ASUS41 KCTP 231510
RWRCTP

REGIONAL WEATHER ROUNDUP
NATIONAL WEATHER SERVICE STATE COLLEGE PA
1100 AM EDT MON MAY 23 2022

Note: "fair" indicates few or no clouds below 12,000 feet with no
significant weather and/or obstructions to visibility.

* = STATION THAT DOES NOT REPORT PRECIPITATION /E.G. RAIN...SNOW...ETC/
    THUNDER OR FOG.

PAZ002>004-007>009-013>016-020>023-029>032-231600-
WESTERN PENNSYLVANIA

CITY           SKY/WX    TMP DP  RH WIND       PRES   REMARKS
ERIE           PTSUNNY   54  44  69 N12       30.34S
MEADVILLE      PTSUNNY   57  43  59 NE7       30.32S
FRANKLIN       PTSUNNY   57  44  62 VRB5      30.32S
NEW CASTLE     PTSUNNY   58  46  64 NE5       30.33S
BEAVER COUNTY  PTSUNNY   59  47  65 N3        30.32R
BUTLER         PTSUNNY   57  47  69 NE6       30.32S
PITTSBURGH INT CLOUDY    57  47  69 E8        30.31R
PITTSBURGH     MOSUNNY   60  49  66 VRB5      30.29F
INDIANA*       MOSUNNY   59  48  67 CALM      30.34R
LATROBE        MOSUNNY   59  50  72 N8        30.30S
WASHINGTON CO* PTSUNNY   61  49  64 NE9       30.32S
$$

PAZ004>006-010>012-017>019-024>028-033>037-041-042-045-046-049>053-231600-
CENTRAL PENNSYLVANIA

CITY           SKY/WX    TMP DP  RH WIND       PRES   REMARKS
BRADFORD       PTSUNNY   58  39  49 N10       30.31S
ST MARYS       NOT AVBL
DUBOIS         PTSUNNY   58  42  55 N9        30.30R
CLEARFIELD     PTSUNNY   62  43  49 VRB5      30.30
JOHNSTOWN      MOSUNNY   56  41  57 VRB6      30.29R
SOMERSET       FAIR      55  41  58 NE7       30.30R
ALTOONA        MOSUNNY   62  45  53 VRB7      30.29S
STATE COLLEGE  MOSUNNY   61  45  55 NE9       30.29S
REEDSVILLE     FAIR      63  46  55 N8        30.28
WELLSBORO      FAIR      55  43  62 N9        30.29S
WILLIAMSPORT   MOSUNNY   64  40  41 N9        30.27S
SELINSGROVE    MOSUNNY   64  50  60 N8        30.29S
FT INDIANTOWN  PTSUNNY   65  44  48 N7        30.25S
CAPITAL CITY   MOSUNNY   67  43  41 N7        30.27S
HARRISBURG     MOSUNNY   65  45  48 NE8       30.26S
YORK           MOSUNNY   64  46  52 N9        30.27S
$$

PAZ038>040-043-044-047-048-054-055-060>062-067>071-231600-
EASTERN PENNSYLVANIA

CITY           SKY/WX    TMP DP  RH WIND       PRES   REMARKS
TOWANDA        SUNNY     61  43  51 N10       30.32R
SCRANTON       PTSUNNY   61  45  55 N10       30.27R
MOUNT POCONO   MOSUNNY   58  45  62 N13G22    30.25S
HAZLETON       FAIR      57  43  58 NE8       30.30S
LEHIGHTON      FAIR      63  45  51 N9        30.27R
ALLENTOWN      MOSUNNY   66  47  50 VRB7      30.24R
QN CITY/ALNTWN PTSUNNY   66  46  48 N6        30.26R
QUAKERTOWN*    SUNNY     64  46  52 N10       30.24S
PERKASIE*      MOSUNNY   64  48  55 N5        30.25S
DOYLESTOWN     MOSUNNY   68  45  43 N10       30.23R
READING        MOSUNNY   66  49  54 MISG      30.24S
LANCASTER      MOSUNNY   67  49  52 NE8       30.26R
COATESVILLE    MOSUNNY   64  48  55 N7G15     30.26S
WEST CHESTER   MOSUNNY   64  45  48 NE6       30.24F
POTTSTOWN      MOSUNNY   64  48  56 VRB5      30.26S
BLUE BELL      MOSUNNY   68  48  49 N5G17     30.24R
NORTH PHILA    MOSUNNY   69  49  48 N15G21    30.23S
PHILADELPHIA   MOSUNNY   69  47  45 N10       30.22S
$$



USA.gov is the U.S. government's official web portal to all federal, state and local government web resources and services.